Location: Newark
(41.0000°N, 28.9500°W)
Time: 13:16:20
(UTC+00:00)

Envisat - Visible Passes

Search period start: 17 January 2020 00:00
Search period end: 27 January 2020 00:00
Orbit: 764 x 766 km, 98.1° (Epoch: 17 January)

Date Brightness Start Highest point End Pass type
(mag) Time Alt. Az. Time Alt. Az. Time Alt. Az.
17 Jan 5.2 07:52:34 10° NE 07:56:58 29° E 08:01:21 10° SSE visible
17 Jan 5.3 20:46:29 10° SSW 20:50:36 25° W 20:54:47 10° NW visible
18 Jan 6.2 07:17:35 10° ENE 07:19:51 13° E 07:22:06 10° ESE visible
18 Jan 3.8 20:08:41 10° S 20:13:39 56° W 20:18:39 10° NNW visible
19 Jan 4.0 08:17:38 10° NNE 08:22:36 51° E 08:27:31 10° S visible
19 Jan 3.0 19:31:52 10° SSE 19:36:53 66° ENE 19:41:56 10° N visible
19 Jan 6.1 21:13:43 10° WSW 21:16:21 14° W 21:19:01 10° WNW visible
20 Jan 5.6 07:41:36 10° NE 07:45:37 23° E 07:49:36 10° SE visible
20 Jan 4.9 20:34:45 10° SSW 20:39:15 31° W 20:43:46 10° NNW visible
21 Jan 3.1 08:42:59 10° NNE 08:48:06 90° ENE 08:53:11 10° SSW visible
21 Jan 3.3 19:57:17 10° S 20:02:20 71° WSW 20:07:26 10° NNW visible
22 Jan 4.5 08:06:28 10° NNE 08:11:16 40° E 08:16:01 10° SSE visible
22 Jan 3.2 19:20:43 10° SSE 19:25:38 52° ENE 19:30:34 10° N visible
22 Jan 5.8 21:01:31 10° SW 21:04:57 18° W 21:08:23 10° NW visible
23 Jan 5.9 07:30:45 10° NE 07:34:13 18° E 07:37:40 10° SE visible
23 Jan 4.5 20:23:09 10° SSW 20:27:54 40° W 20:32:40 10° NNW visible
24 Jan 3.4 08:31:43 10° NNE 08:36:49 72° ESE 08:41:52 10° S visible
24 Jan 3.0 19:45:58 10° SSE 19:51:03 90° WSW 19:56:10 10° NNW visible
25 Jan 5.0 07:55:23 10° NNE 07:59:55 32° E 08:04:24 10° SSE visible
25 Jan 5.5 20:49:35 10° SW 20:53:33 23° W 20:57:33 10° NW visible
26 Jan 6.2 07:20:08 10° ENE 07:22:48 14° E 07:25:28 10° ESE visible
26 Jan 4.0 20:11:38 10° S 20:16:33 51° W 20:21:31 10° NNW visible
